Location: Vlissingen
(51.4500°N, 3.5830°E)
Time: 15:22:55
(UTC+02:00)

Daily predictions for brighter satellites

Satellite Brightness Start Highest point End
(mag) Time Altitude Azimuth Time Altitude Azimuth Time Altitude Azimuth
Cosmos 2298 Rocket 4.1 20:08:47 10° NNW 20:14:10 88° WSW 20:19:31 10° SSE
Cosmos 1937 Rocket 3.6 20:08:48 10° NNW 20:14:11 90° WSW 20:19:28 10° SSE
Cosmos 468 Rocket 4.1 20:12:21 10° S 20:17:25 54° ESE 20:22:34 10° NNE
Cosmos 841 Rocket 4.4 20:13:59 10° SSE 20:18:13 26° E 20:22:27 10° NE
Cosmos 1726 Rocket 3.7 20:15:52 10° SSE 20:20:04 49° E 20:24:16 10° NNE
COSMOS 2406 4.5 20:17:25 10° SE 20:21:12 18° E 20:25:00 10° ENE
Cosmos 1656 Rocket 3.7 20:15:31 10° NNW 20:21:14 73° ENE 20:26:50 10° SE
Resurs 1-3 4.5 20:18:09 10° SE 20:22:01 31° ENE 20:25:53 10° N
Cosmos 2369 Rocket 3.9 20:18:27 10° NW 20:23:34 36° WSW 20:28:39 10° S
BREEZE-M DEB (TANK) 1.5 20:20:47 10° W 20:23:48 55° S 20:25:39 11° ESE
FENGYUN 3A 3.9 20:19:43 10° S 20:25:04 76° WSW 20:30:29 10° NNW
FengYun 1-2 T 4.2 20:20:06 10° SSE 20:25:41 76° ENE 20:31:16 10° NNW
USA 267 3.7 20:19:24 10° ENE 20:25:50 62° NNW 20:32:17 10° W
Cosmos 389 Rocket 2.4 20:26:19 10° S 20:29:48 71° E 20:33:17 10° NNE
Meteor 1-15 Rocket 4.4 20:24:46 10° SSW 20:30:41 86° WNW 20:36:32 10° NNE
H-2A R/B 2.6 20:27:21 10° SSE 20:31:04 78° ENE 20:34:51 10° N
SL-16 R/B 4.3 20:27:07 10° W 20:31:51 27° NW 20:36:38 10° NNE
Cosmos 304 Rocket 4.5 20:32:10 10° SSE 20:36:22 31° ESE 20:40:37 10° NE
Cosmos 1763 Rocket 3.7 20:34:27 10° S 20:39:21 49° ESE 20:44:21 10° NNE
Resurs 01 Rocket 1.9 20:35:51 10° SE 20:40:05 46° ENE 20:44:20 10° N
GP-B 4.0 20:37:45 10° NNE 20:41:36 27° E 20:45:24 10° SE
Thor Agena Rocket 3.5 20:37:24 10° NNE 20:42:43 81° ESE 20:47:56 10° SSW
Cosmos 2084 4.2 20:40:09 10° S 20:43:35 27° ESE 20:46:54 10° ENE
Cosmos 540 Rocket 4.5 20:39:54 10° SSE 20:43:49 23° E 20:47:46 10° NE
In-Cosmos 22 4.4 20:38:16 10° N 20:43:50 57° ENE 20:49:28 10° SSE
Cosmos 1766 4.0 20:41:12 10° SSE 20:44:40 31° E 20:48:09 10° NNE
Cosmos 1707 3.3 20:41:04 10° NNW 20:44:58 63° W 20:48:51 10° S
Cosmos 1943 3.7 20:46:17 10° SW 20:51:56 65° NW 20:57:38 10° NNE
Cosmos 2228 2.9 20:49:18 10° S 20:53:38 72° E 20:57:59 10° NNE
ALOS 3.8 20:49:21 10° SSW 20:53:43 39° W 20:58:07 10° NNW
Cosmos 1939 Rocket 3.6 20:53:28 16° ESE 20:56:00 33° ENE 20:59:33 10° N
Meteor 2-13 Rocket 4.4 20:51:00 10° S 20:57:06 82° E 21:03:12 10° NNE
Cosmos 1812 Rocket 4.4 20:53:58 10° SSE 20:57:50 30° E 21:01:45 10° NNE
HJ-1C 4.0 20:54:46 10° S 20:58:05 60° W 21:01:26 10° NNW
Cosmos 1606 Rocket 4.2 20:54:43 10° SSW 20:59:01 60° WNW 21:03:19 10° N
Cosmos 2058 Rocket 3.0 20:55:23 10° S 20:59:44 87° E 21:04:10 10° N
Spot 2 Rocket 3.4 20:59:20 10° SSE 21:04:20 70° ENE 21:09:22 10° NNW
Cosmos 2278 4.5 21:03:10 10° NNW 21:08:24 36° NE 21:11:36 21° E
Cosmos 1271 Rocket 4.4 21:04:57 10° SW 21:08:29 37° WNW 21:12:05 10° N
Cosmos 1674 3.4 21:06:22 10° N 21:09:48 32° ENE 21:11:00 26° ESE
Meteor 1-24 Rocket 4.0 21:04:19 10° NNW 21:10:23 82° W 21:16:15 10° S
Okean 3 Rocket 4.4 21:06:50 10° N 21:10:53 32° ENE 21:12:38 24° ESE
USA 186 0.9 21:10:27 31° SSE 21:11:27 72° ENE 21:13:51 10° N
YAOGAN 6 3.2 21:14:50 29° ESE 21:15:56 37° ENE 21:19:19 10° N
Cosmos 1814 Rocket 4.2 21:14:43 10° SSW 21:19:52 73° WNW 21:25:02 10° NNE
Cosmos 1805 3.5 21:18:23 14° SSE 21:21:33 45° E 21:25:18 10° NNE
Cosmos 1544 2.9 21:18:02 10° S 21:21:36 63° E 21:25:12 10° NNE
Cosmos 1125 Rocket 3.5 21:16:40 10° NNW 21:22:00 85° WSW 21:26:36 14° SSE
Cosmos 2322 Rocket 4.3 21:20:28 10° N 21:23:23 14° NNE 21:26:17 10° NE
MOS 1-B Rocket 3.9 21:19:32 10° SSE 21:25:41 87° WSW 21:31:21 10° NNW
CZ-2D R/B 4.1 21:22:49 10° S 21:26:32 50° W 21:30:17 10° NNW
Cosmos 2154 Rocket 4.1 21:20:41 10° SSE 21:26:42 55° E 21:32:49 10° NNE
SPOT 5 4.2 21:27:40 18° ENE 21:28:01 18° ENE 21:31:01 10° NNE
Cosmos 2074 Rocket 4.1 21:25:43 10° SSW 21:31:55 80° W 21:38:11 10° N
ATLAS 2AS CENTAUR R/B 3.3 21:23:55 10° NW 21:31:59 59° NE 21:36:36 26° ESE
ERS-1 Rocket 3.7 21:31:39 29° E 21:33:09 35° ENE 21:37:42 10° N
Cosmos 2341 Rocket 4.2 21:29:47 11° SSE 21:35:22 47° E 21:41:17 10° NNE
Envisat 3.2 21:31:28 10° S 21:36:32 73° WSW 21:41:39 10° NNW
Cosmos 1697 Rocket 3.5 21:31:20 10° NNW 21:36:35 36° NE 21:38:37 27° E
Cosmos 1980 Rocket 3.5 21:31:59 10° NNW 21:36:41 26° NE 21:38:42 21° ENE
Cosmos 372 Rocket 4.2 21:31:47 10° NNW 21:37:02 74° WSW 21:40:57 18° SSE
Cosmos 1470 4.4 21:39:26 20° NE 21:39:26 20° NE 21:41:10 10° NNE
H-2A R/B 3.2 21:38:14 23° ENE 21:38:56 24° ENE 21:42:56 10° N
KORONAS-FOTON 3.9 21:36:08 10° N 21:39:50 49° ENE 21:40:09 47° E
Cosmos 1953 2.6 21:40:39 44° E 21:40:42 44° E 21:44:36 10° NNE
Helios 1A 3.1 21:40:48 43° ESE 21:41:45 52° ENE 21:45:50 10° N
Cosmos 1356 3.8 21:41:21 10° NNW 21:44:49 61° W 21:46:22 29° S
Helios 1B rocket 4.3 21:42:41 10° NE 21:44:01 17° NE 21:44:01 17° NE
Cosmos 1656 4.0 21:41:57 10° NNW 21:47:32 52° NE 21:49:27 37° ESE
Spot 1 4.1 21:51:08 49° E 21:51:39 53° ENE 21:55:43 10° N
Nadezhda 3 Rocket 4.1 21:47:27 10° NNW 21:53:48 76° W 21:59:44 11° S
Cosmos 2084 Rocket 4.2 21:50:54 10° NW 21:54:27 33° NNE 21:54:46 32° NE
Cosmos 841 Rocket 4.2 21:54:45 10° SW 21:59:47 54° WNW 22:04:52 10° NNE
SL-16 R/B 3.9 21:55:56 10° NNW 21:59:57 19° NNE 22:01:50 17° ENE
Meteor 1-21 Rocket 4.3 21:57:19 10° NNW 22:03:08 81° W 22:06:23 27° S
SL-14 R/B 4.1 21:59:23 10° N 22:02:22 38° NE 22:02:22 38° NE
COSMOS 2406 3.2 21:59:01 10° SSW 22:04:45 88° WNW 22:10:33 10° NNE
Cosmos 2285 Rocket 4.4 22:05:23 39° E 22:05:23 39° E 22:11:08 10° NE
Cosmos 2366 rocket 4.4 22:05:05 39° E 22:05:30 40° E 22:11:18 10° NNE
Cosmos 2218 Rocket 4.3 22:05:08 42° ESE 22:05:52 43° E 22:11:41 10° NNE
USA 267 3.7 22:04:44 26° ENE 22:08:27 57° N 22:14:50 10° WNW
Cosmos 292 Rocket 4.4 22:11:27 40° ENE 22:11:27 40° ENE 22:14:53 10° NNE
NOAA 11 4.1 22:08:20 44° SSE 22:10:10 83° ENE 22:15:38 10° NNW
Cosmos 1076 Rocket 3.5 22:11:43 10° NNW 22:16:07 79° W 22:16:38 67° SSW
ARGOS 3.2 22:15:18 55° ESE 22:16:08 63° ENE 22:21:31 10° N
Resurs 01 Rocket 3.8 22:13:12 10° SSW 22:16:47 24° W 22:20:23 10° NW
Cosmos 2369 3.6 22:11:37 10° NNW 22:17:20 86° WSW 22:18:45 53° SSE
Meteor 2-21 4.3 22:20:08 44° SSE 22:22:08 70° E 22:28:14 10° NNE
MetOp-A 4.0 22:21:20 60° SE 22:22:19 81° ENE 22:27:43 10° NNW
Cosmos 2084 4.0 22:19:03 10° WSW 22:22:55 49° NW 22:23:50 39° N
Cosmos 1758 3.9 22:21:52 41° SW 22:23:00 57° WNW 22:26:58 10° N
Cosmos 540 Rocket 3.9 22:19:57 10° SW 22:25:00 61° WNW 22:30:06 10° NNE
Cosmos 1295 Rocket 4.4 22:24:37 24° S 22:28:28 87° W 22:34:36 10° N
Cosmos 1727 Rocket 4.0 22:22:27 10° N 22:28:44 65° ENE 22:29:40 57° ESE
Cosmos 1408 Rocket 3.7 22:28:27 10° N 22:32:12 66° N 22:32:12 66° N
Meteor 2-15 Rocket 4.3 22:27:37 10° NNW 22:33:45 86° W 22:35:16 54° S
SL-8 Rocket 3.8 22:33:13 52° S 22:34:47 79° E 22:40:59 10° NNE
Terra 3.1 22:44:54 30° NNE 22:44:54 30° NNE 22:47:58 10° N
SPOT 1/Viking Rocket 3.7 22:44:52 61° NE 22:44:52 61° NE 22:49:30 10° N
Cosmos 1809 Rocket 4.4 22:43:46 39° SSW 22:46:13 80° WNW 22:52:22 10° N
Cosmos 1818 3.7 22:41:02 10° NW 22:46:24 64° NE 22:46:24 64° NE
BREEZE-M DEB (TANK) 3.5 22:34:58 10° W 22:50:40 73° SSW 22:51:14 68° SSE
GEOS 3 Rocket 3.6 22:45:17 10° NE 22:50:42 90° NW 22:56:07 10° SW
Cosmos 2278 4.2 22:47:17 10° NW 22:52:47 52° WSW 22:53:31 49° SW
Cosmos 1626 4.3 22:50:04 10° N 22:51:28 21° N 22:51:28 21° N
Cosmos 2082 Rocket 4.1 22:58:09 18° NE 22:58:09 18° NE 22:59:39 10° NE
Meteor 2-16 Rocket 4.3 22:59:42 86° SE 22:59:46 87° E 23:05:55 10° NNE
SL-08 RB Rocket 4.5 23:02:34 50° NW 23:02:34 50° NW 23:06:01 10° NNW
Cosmos 864 Rocket 4.4 23:03:53 81° SSW 23:04:15 89° WNW 23:10:38 10° N
SPOT 5 3.7 23:06:55 44° NW 23:06:55 44° NW 23:10:03 10° NNW
Cosmos 2322 Rocket 3.1 23:03:53 10° NNW 23:08:34 37° NNE 23:08:34 37° NNE
ERS-1 Rocket 4.0 23:11:40 39° WSW 23:11:54 39° W 23:16:37 10° NNW
H-2A R/B 2.6 23:18:52 52° WNW 23:18:52 52° WNW 23:23:00 10° NNW
Cosmos 2360 Rocket 3.7 23:14:39 10° NNW 23:19:07 25° NE 23:19:07 25° NE
Cosmos 1697 Rocket 3.2 23:15:17 10° NW 23:20:21 52° W 23:20:21 52° W
Cosmos 1980 Rocket 2.5 23:15:41 10° NNW 23:20:28 64° NW 23:20:28 64° NW
Helios 1B rocket 4.3 23:17:47 10° N 23:20:22 30° NNW 23:20:22 30° NNW
ATLAS 2AS CENTAUR R/B 3.3 23:15:19 10° NW 23:23:06 54° WSW 23:24:02 52° SW
NOSS 3-4 (A) 3.8 23:28:20 10° NW 23:35:04 73° NNE 23:35:04 73° NNE
NOSS 3-4 (C) 3.8 23:28:27 10° NW 23:35:10 72° NNE 23:35:10 72° NNE
Cosmos 2333 Rocket 4.5 23:33:36 10° N 23:36:51 15° NNE 23:38:22 14° NE
SL-16 R/B 3.1 23:39:34 10° NNW 23:43:41 45° N 23:43:41 45° N
H-2A R/B 4.3 23:50:31 23° N 23:50:31 23° N 23:52:14 10° N
USA 267 3.3 23:52:04 71° NW 23:52:04 71° NW 23:57:51 10° WNW
